• In Kazakhstan
  • List of Countries
  • For 7 days
  • Water Temperature
  • Satellite Maps
  • Weather Map
  • News
  • Weather Widgets
  • user-avatar
    Login

    Hourly Weather Yulara

    Today, 21 June, Friday

    Time Temperature Precipitation Wind Pressure Humidity
    00:00 +7°C° 0 mm 4 mps 723 mmHg 39%
    01:00 +6°C° 0 mm 4 mps 723 mmHg 41%
    02:00 +5°C° 0 mm 3 mps 723 mmHg 44%
    03:00 +4°C° 0 mm 3 mps 723 mmHg 47%
    04:00 +4°C° 0 mm 3 mps 723 mmHg 49%
    05:00 +3°C° 0 mm 3 mps 723 mmHg 52%
    06:00 +3°C° 0 mm 3 mps 723 mmHg 54%
    07:00 +4°C° 0 mm 3 mps 724 mmHg 49%
    08:00 +6°C° 0 mm 4 mps 724 mmHg 44%
    09:00 +8°C° 0 mm 4 mps 725 mmHg 39%
    10:00 +11°C° 0 mm 4 mps 724 mmHg 34%
    11:00 +13°C° 0 mm 5 mps 724 mmHg 29%
    12:00 +15°C° 0 mm 5 mps 723 mmHg 24%
    13:00 +15°C° 0 mm 5 mps 723 mmHg 22%
    14:00 +16°C° 0 mm 5 mps 722 mmHg 20%
    15:00 +18°C° 0 mm 4 mps 722 mmHg 19%
    16:00 +15°C° 0 mm 4 mps 722 mmHg 22%
    17:00 +13°C° 0 mm 4 mps 722 mmHg 26%
    18:00 +11°C° 0 mm 3 mps 722 mmHg 29%
    19:00 +10°C° 0 mm 4 mps 722 mmHg 31%
    20:00 +10°C° 0 mm 4 mps 723 mmHg 32%
    21:00 +8°C° 0 mm 4 mps 723 mmHg 34%
    22:00 +7°C° 0 mm 4 mps 723 mmHg 36%
    23:00 +6°C° 0 mm 4 mps 723 mmHg 38%

    Tomorrow, 22 June, Saturday

    Time Temperature Precipitation Wind Pressure Humidity
    00:00 +5°C° 0 mm 4 mps 723 mmHg 40%
    01:00 +5°C° 0 mm 4 mps 723 mmHg 42%
    02:00 +4°C° 0 mm 4 mps 723 mmHg 43%
    03:00 +4°C° 0 mm 4 mps 723 mmHg 45%
    04:00 +3°C° 0 mm 4 mps 723 mmHg 47%
    05:00 +3°C° 0 mm 4 mps 723 mmHg 49%
    06:00 +2°C° 0 mm 3 mps 723 mmHg 51%
    07:00 +4°C° 0 mm 4 mps 723 mmHg 46%
    08:00 +5°C° 0 mm 5 mps 724 mmHg 41%
    09:00 +7°C° 0 mm 5 mps 724 mmHg 36%
    10:00 +9°C° 0 mm 5 mps 724 mmHg 31%
    11:00 +12°C° 0 mm 5 mps 723 mmHg 27%
    12:00 +14°C° 0 mm 5 mps 723 mmHg 22%
    13:00 +15°C° 0 mm 5 mps 722 mmHg 20%
    14:00 +16°C° 0 mm 5 mps 722 mmHg 19%
    15:00 +17°C° 0 mm 5 mps 721 mmHg 17%
    16:00 +15°C° 0 mm 4 mps 721 mmHg 20%
    17:00 +13°C° 0 mm 4 mps 721 mmHg 23%
    18:00 +11°C° 0 mm 3 mps 722 mmHg 25%
    19:00 +10°C° 0 mm 4 mps 722 mmHg 27%
    20:00 +10°C° 0 mm 4 mps 722 mmHg 29%
    21:00 +8°C° 0 mm 4 mps 722 mmHg 31%
    22:00 +7°C° 0 mm 4 mps 723 mmHg 33%
    23:00 +7°C° 0 mm 4 mps 723 mmHg 35%

    Day after tomorrow, 23 June, Sunday

    Time Temperature Precipitation Wind Pressure Humidity
    00:00 +6°C° 0 mm 4 mps 723 mmHg 37%
    01:00 +5°C° 0 mm 4 mps 723 mmHg 39%
    02:00 +5°C° 0 mm 4 mps 723 mmHg 42%
    03:00 +4°C° 0 mm 4 mps 723 mmHg 44%
    04:00 +4°C° 0 mm 4 mps 723 mmHg 46%
    05:00 +4°C° 0 mm 4 mps 723 mmHg 48%
    06:00 +3°C° 0 mm 4 mps 723 mmHg 50%
    07:00 +5°C° 0 mm 4 mps 723 mmHg 46%
    08:00 +6°C° 0 mm 4 mps 724 mmHg 43%
    09:00 +8°C° 0 mm 5 mps 724 mmHg 39%
    10:00 +10°C° 0 mm 5 mps 724 mmHg 34%
    11:00 +13°C° 0 mm 5 mps 723 mmHg 29%
    12:00 +15°C° 0 mm 6 mps 723 mmHg 24%
    13:00 +16°C° 0 mm 6 mps 723 mmHg 23%
    14:00 +17°C° 0 mm 5 mps 722 mmHg 21%
    15:00 +17°C° 0 mm 5 mps 722 mmHg 20%
    16:00 +16°C° 0 mm 5 mps 722 mmHg 23%
    17:00 +14°C° 0 mm 4 mps 722 mmHg 26%
    18:00 +12°C° 0 mm 4 mps 722 mmHg 28%
    19:00 +11°C° 0 mm 4 mps 722 mmHg 30%
    20:00 +11°C° 0 mm 4 mps 723 mmHg 32%
    21:00 +10°C° 0 mm 4 mps 723 mmHg 33%
    22:00 +8°C° 0 mm 4 mps 723 mmHg 35%
    23:00 +7°C° 0 mm 4 mps 723 mmHg 37%

    24 June, Monday

    Time Temperature Precipitation Wind Pressure Humidity
    00:00 +7°C° 0 mm 4 mps 723 mmHg 39%
    01:00 +6°C° 0 mm 4 mps 723 mmHg 42%
    02:00 +6°C° 0 mm 4 mps 723 mmHg 44%
    03:00 +5°C° 0 mm 3 mps 723 mmHg 46%
    04:00 +5°C° 0 mm 4 mps 724 mmHg 47%
    05:00 +4°C° 0 mm 4 mps 724 mmHg 49%
    06:00 +4°C° 0 mm 4 mps 724 mmHg 51%
    07:00 +5°C° 0 mm 4 mps 725 mmHg 47%
    08:00 +7°C° 0 mm 5 mps 725 mmHg 43%
    09:00 +8°C° 0 mm 5 mps 725 mmHg 40%
    10:00 +10°C° 0 mm 5 mps 725 mmHg 35%
    11:00 +13°C° 0 mm 5 mps 725 mmHg 30%
    12:00 +15°C° 0 mm 5 mps 724 mmHg 25%
    13:00 +16°C° 0 mm 5 mps 724 mmHg 23%
    14:00 +17°C° 0 mm 5 mps 723 mmHg 22%
    15:00 +19°C° 0 mm 5 mps 723 mmHg 20%
    16:00 +17°C° 0 mm 4 mps 723 mmHg 22%
    17:00 +14°C° 0 mm 4 mps 723 mmHg 24%
    18:00 +13°C° 0 mm 3 mps 723 mmHg 26%
    19:00 +12°C° 0 mm 3 mps 724 mmHg 27%
    20:00 +11°C° 0 mm 4 mps 724 mmHg 28%
    21:00 +11°C° 0 mm 4 mps 725 mmHg 29%
    22:00 +10°C° 0 mm 4 mps 725 mmHg 30%
    23:00 +8°C° 0 mm 4 mps 725 mmHg 32%

    25 June, Tuesday

    Time Temperature Precipitation Wind Pressure Humidity
    00:00 +8°C° 0 mm 4 mps 725 mmHg 33%
    01:00 +8°C° 0 mm 3 mps 725 mmHg 35%
    02:00 +7°C° 0 mm 3 mps 725 mmHg 37%
    03:00 +7°C° 0 mm 3 mps 725 mmHg 38%
    04:00 +5°C° 0 mm 3 mps 725 mmHg 38%
    05:00 +5°C° 0 mm 3 mps 725 mmHg 39%
    06:00 +5°C° 0 mm 3 mps 725 mmHg 39%
    07:00 +6°C° 0 mm 4 mps 726 mmHg 37%
    08:00 +7°C° 0 mm 4 mps 726 mmHg 35%
    09:00 +10°C° 0 mm 4 mps 726 mmHg 33%
    10:00 +12°C° 0 mm 5 mps 726 mmHg 29%
    11:00 +14°C° 0 mm 5 mps 726 mmHg 25%
    12:00 +16°C° 0 mm 5 mps 725 mmHg 20%
    13:00 +16°C° 0 mm 6 mps 725 mmHg 21%
    14:00 +17°C° 0 mm 6 mps 724 mmHg 21%
    15:00 +19°C° 0 mm 6 mps 724 mmHg 22%
    16:00 +16°C° 0 mm 5 mps 724 mmHg 25%
    17:00 +14°C° 0 mm 5 mps 724 mmHg 29%
    18:00 +13°C° 0 mm 4 mps 724 mmHg 33%
    19:00 +12°C° 0 mm 4 mps 724 mmHg 35%
    20:00 +11°C° 0 mm 4 mps 725 mmHg 36%
    21:00 +10°C° 0 mm 4 mps 725 mmHg 38%
    22:00 +8°C° 0 mm 4 mps 725 mmHg 39%
    23:00 +7°C° 0 mm 4 mps 725 mmHg 40%

    26 June, Wednesday

    Time Temperature Precipitation Wind Pressure Humidity
    00:00 +7°C° 0 mm 4 mps 725 mmHg 42%
    01:00 +6°C° 0 mm 4 mps 725 mmHg 44%
    02:00 +6°C° 0 mm 4 mps 725 mmHg 46%
    03:00 +5°C° 0 mm 4 mps 725 mmHg 48%
    04:00 +5°C° 0 mm 3 mps 725 mmHg 49%
    05:00 +4°C° 0 mm 3 mps 725 mmHg 51%
    06:00 +4°C° 0 mm 3 mps 725 mmHg 53%
    07:00 +5°C° 0 mm 4 mps 725 mmHg 49%
    08:00 +7°C° 0 mm 5 mps 725 mmHg 44%
    09:00 +8°C° 0 mm 6 mps 725 mmHg 40%
    10:00 +11°C° 0 mm 6 mps 725 mmHg 35%
    11:00 +14°C° 0 mm 6 mps 724 mmHg 31%
    12:00 +16°C° 0 mm 7 mps 724 mmHg 27%
    13:00 +17°C° 0 mm 6 mps 723 mmHg 25%
    14:00 +19°C° 0 mm 6 mps 723 mmHg 23%
    15:00 +19°C° 0 mm 6 mps 722 mmHg 21%
    16:00 +17°C° 0 mm 5 mps 722 mmHg 25%
    17:00 +15°C° 0 mm 5 mps 722 mmHg 29%
    18:00 +13°C° 0 mm 4 mps 721 mmHg 34%
    19:00 +12°C° 0 mm 4 mps 722 mmHg 38%
    20:00 +11°C° 0 mm 4 mps 722 mmHg 43%
    21:00 +9°C° 0 mm 5 mps 722 mmHg 48%
    22:00 +9°C° 0 mm 5 mps 722 mmHg 51%
    23:00 +8°C° 0 mm 5 mps 722 mmHg 55%
    Show more